Location: Multiple Mirror Telescope
(31.6889°N, 110.8853°W)
Time: 08:59:52
(UTC-07:00)

Hubble Space Telescope - Pass Details

Date: 30 May 2024
Orbit: 511 x 515 km, 28.5° (Epoch: 14 June)

Event Time Altitude Azimuth Distance (km) Brightness Sun altitude
Rises 21:01:55 0° 266° (W) 2,612 5.0 -18.2°
Reaches altitude 10° 21:04:12 10° 261° (W) 1,726 3.9 -18.6°
Maximum altitude 21:08:04 50° 186° (S) 655 0.9 -19.2°
Enters shadow 21:08:19 49° 171° (S) 664 0.8 -19.2°
